Tampa, FL

7:55 AM EDT on April 30, 2017 (GMT -0400)
Tampa International

Weather History for KTPA - May, 2013

Change the Weather History Date:

Sunday, May 12, 2013

  Actual Average Record
Temperature  
Mean Temperature 80 °F 78 °F  
Max Temperature 86 °F 87 °F 95 °F (2015)
Min Temperature 73 °F 69 °F 55 °F (1989)
Degree Days  
Heating Degree Days 0 0  
Month to date heating degree days 0 0  
Since 1 July heating degree days 400 538  
Cooling Degree Days 15 13  
Month to date cooling degree days 113 139  
Year to date cooling degree days 691 599  
Growing Degree Days 30 (Base 50)    
Moisture  
Dew Point 69 °F    
Average Humidity 76    
Maximum Humidity 94    
Minimum Humidity 58    
Precipitation  
Precipitation 0.00 in 0.05 in 1.44 in (1951)
Month to date precipitation 1.01 0.63  
Year to date precipitation 8.28 10.73  
Sea Level Pressure  
Sea Level Pressure 30.02 in    
Wind  
Wind Speed 6 mph (WNW)    
Max Wind Speed 15 mph    
Max Gust Speed 22 mph    
Visibility 10 miles    
Events      
T = Trace of Precipitation, MM = Missing Value Source: NWS Daily Summary

Daily Weather History Graph

Daily Weather History Graph

Search for Another Location

Airport or City:

Trip Planner

Search our weather history database for the weather conditions in past years. The results will help you decide how hot, cold, wet, or windy it might be!

Date:

Astronomy

May. 12, 2013 Rise Set
Actual Time 6:42 AM EDT 8:11 PM EDT
Civil Twilight 6:16 AM EDT 8:36 PM EDT
Nautical Twilight 5:46 AM EDT 9:06 PM EDT
Astronomical Twilight 5:14 AM EDT 9:38 PM EDT
Moon 8:39 AM EDT (5/12) 10:34 PM EDT (5/12)
Length of Visible Light 14h 19m
Length of Day
13h 29m
Waxing Crescent, 6% of the Moon is Illuminated
May 12
Waxing Crescent
May 18
First Quarter
May 25
Full
May 31
Last Quarter
Jun 8
New

Hourly Weather History & Observations

Time (EDT) Temp. Heat Index Dew Point Humidity Pressure Visibility Wind Dir Wind Speed Gust Speed Precip Events Conditions
12:53 AM 73.9 °F - 68.0 °F 82% 30.05 in 10.0 mi Calm Calm - N/A   Clear
1:53 AM 75.0 °F - 68.0 °F 79% 30.02 in 10.0 mi SE 3.5 mph - N/A   Clear
2:53 AM 73.9 °F - 69.1 °F 85% 29.98 in 10.0 mi SSE 4.6 mph - N/A   Clear
3:53 AM 75.0 °F - 70.0 °F 84% 29.98 in 10.0 mi Calm Calm - N/A   Partly Cloudy
4:53 AM 73.9 °F - 70.0 °F 87% 29.96 in 10.0 mi Calm Calm - N/A   Partly Cloudy
5:53 AM 75.0 °F - 72.0 °F 90% 29.98 in 8.0 mi South 3.5 mph - N/A   Scattered Clouds
6:11 AM 75.2 °F - 71.6 °F 89% 29.99 in 7.0 mi Calm Calm - N/A   Mostly Cloudy
6:53 AM 75.9 °F - 73.0 °F 91% 30.01 in 6.0 mi NW 5.8 mph - N/A   Mostly Cloudy
7:36 AM 73.4 °F - 71.6 °F 94% 30.03 in 9.0 mi North 4.6 mph - N/A   Mostly Cloudy
7:53 AM 73.9 °F - 71.1 °F 91% 30.03 in 9.0 mi Calm Calm - N/A   Mostly Cloudy
8:53 AM 78.1 °F - 72.0 °F 81% 30.04 in 9.0 mi Calm Calm - N/A   Mostly Cloudy
9:26 AM 78.8 °F - 71.6 °F 78% 30.05 in 10.0 mi West 4.6 mph - N/A   Mostly Cloudy
9:53 AM 80.1 °F 83.8 °F 72.0 °F 76% 30.05 in 10.0 mi WNW 4.6 mph - N/A   Mostly Cloudy
10:12 AM 78.8 °F - 71.6 °F 78% 30.04 in 10.0 mi West 5.8 mph - N/A   Mostly Cloudy
10:53 AM 81.0 °F 84.9 °F 71.1 °F 72% 30.04 in 10.0 mi West 6.9 mph - N/A   Mostly Cloudy
11:53 AM 84.0 °F 87.0 °F 68.0 °F 58% 30.04 in 10.0 mi West 9.2 mph - N/A   Mostly Cloudy
12:53 PM 84.0 °F 87.8 °F 69.1 °F 61% 30.03 in 10.0 mi West 6.9 mph - N/A   Mostly Cloudy
1:53 PM 84.0 °F 87.8 °F 69.1 °F 61% 30.02 in 10.0 mi WSW 8.1 mph - N/A   Mostly Cloudy
2:53 PM 84.9 °F 88.2 °F 68.0 °F 57% 30.01 in 10.0 mi West 11.5 mph 19.6 mph N/A   Mostly Cloudy
3:53 PM 84.9 °F 88.2 °F 68.0 °F 57% 30.01 in 10.0 mi West 12.7 mph - N/A   Partly Cloudy
4:53 PM 82.9 °F 85.8 °F 68.0 °F 60% 30.01 in 10.0 mi West 11.5 mph - N/A   Scattered Clouds
5:53 PM 81.0 °F 82.7 °F 64.9 °F 58% 30.00 in 10.0 mi NW 10.4 mph - N/A   Scattered Clouds
6:53 PM 80.1 °F 81.7 °F 64.0 °F 58% 30.00 in 10.0 mi NNW 11.5 mph - N/A   Mostly Cloudy
7:53 PM 79.0 °F - 64.0 °F 60% 30.02 in 10.0 mi NW 6.9 mph - N/A   Mostly Cloudy
8:53 PM 77.0 °F - 66.0 °F 69% 30.04 in 10.0 mi NW 3.5 mph - N/A   Scattered Clouds
9:53 PM 75.0 °F - 66.0 °F 73% 30.06 in 10.0 mi WNW 4.6 mph - N/A   Scattered Clouds
10:53 PM 73.9 °F - 66.9 °F 79% 30.06 in 10.0 mi NNW 4.6 mph - N/A   Scattered Clouds
11:53 PM 73.9 °F - 66.0 °F 76% 30.06 in 10.0 mi Calm Calm - N/A   Partly Cloudy